sat.trackr.live / text

‹ back to catalog

STARLINK-32451

NORAD 61857 · 2024-202N

PAYLOAD ACTIVE UNKNOWN

§ Identity

Operator
Country
US
Launch date
2024-11-07
Launch site
AFETR
Launch vehicle
Mass (kg)
RCS (m²)

Purposes: comms

External: N2YO · Heavens-Above · Gunter

§ Orbital elements

Epoch: 2026-05-25T02:22:09.872832Z

Period
94.27 min
Inclination
43.0003°
Eccentricity
0.0001291
Mean motion
15.27590295 rev/d
Perigee alt
482.1 km
Apogee alt
483.9 km
Semi-major
6,861.2 km
B*
-8.0620e-5
RAAN
166.4537°
Arg perigee
280.2908°
Mean anomaly
79.7798°
Rev number
8,702

§ Raw data

STARLINK-324511 61857U 24202N   26145.09872538 -.00002481  00000+0 -80620-4 0  99932 61857  43.0003 166.4537 0001291 280.2908  79.7798 15.27590295 87022

JSON: /api/v1/satellites/61857 · /tle

For live sub-satellite position, see the globe view (requires WebGL).

§ Visibility from observer

Set your observer location to see the next 7 days of passes ≥ 10°. The values pass through the URL so the page stays shareable.

No JS? Fill the form by hand. The geolocation button needs JavaScript.